This is the latest recevied weather packets stored in our database for station/object W4TBD-13. If no packets are shown the sender has not sent any weather packets the latest 10 day(s).
| Time | Temp. | Humidity | Pressure | Rain* | Wind** | Luminosity | Snow |
|---|---|---|---|---|---|---|---|
| 1777857306 | 12.22° C | 61% | 1005.9 hPa | 0 mm | - | 0 W/m² | - |
| 1777855505 | 13.33° C | 53% | 1006 hPa | 0 mm | - | 0 W/m² | - |
| 1777854304 | 13.89° C | 48% | 1005.9 hPa | 0 mm | - | 0 W/m² | - |
| 1777851005 | 16.11° C | 39% | 1005.5 hPa | 0 mm | - | 0 W/m² | - |
| 1777850405 | 16.67° C | 36% | 1005.6 hPa | 0 mm | - | 0 W/m² | - |
| 1777848904 | 16.67° C | 39% | 1005.6 hPa | 0 mm | - | 0 W/m² | - |
| 1777846504 | 16.67° C | 35% | 1005.6 hPa | 0 mm | - | 0 W/m² | - |
| 1777845904 | 16.67° C | 34% | 1005.6 hPa | 0 mm | - | 0 W/m² | - |
| 1777845304 | 17.22° C | 34% | 1005.9 hPa | 0 mm | - | 0 W/m² | - |
| 1777838406 | 16.67° C | 32% | 1006 hPa | 0 mm | - | 0 W/m² | - |
| 1777837206 | 16.67° C | 34% | 1006.4 hPa | 0 mm | - | 0 W/m² | - |
| 1777834804 | 15.56° C | 37% | 1007.1 hPa | 0 mm | - | 0 W/m² | - |
| 1777834504 | 16.11° C | 34% | 1006.9 hPa | 0 mm | - | 0 W/m² | - |
| 1777832405 | 16.11° C | 35% | 1007.3 hPa | 0 mm | - | 0 W/m² | - |
| 1777830905 | 15° C | 39% | 1007.8 hPa | 0 mm | - | 306 W/m² | - |
| 1777827005 | 14.44° C | 39% | 1008.4 hPa | 0 mm | - | 248 W/m² | - |
| 1777826104 | 13.89° C | 39% | 1008.5 hPa | 0 mm | - | 650 W/m² | - |
| 1777824605 | 13.33° C | 39% | 1008.6 hPa | 0 mm | - | 627 W/m² | - |
| 1777824305 | 13.33° C | 38% | 1008.6 hPa | 0 mm | - | 596 W/m² | - |
| 1777822805 | 13.33° C | 39% | 1008.8 hPa | 0 mm | - | 625 W/m² | - |
| 1777822504 | 12.78° C | 39% | 1009.1 hPa | 0 mm | - | 624 W/m² | - |
| 1777821606 | 12.78° C | 38% | 1008.7 hPa | 0 mm | - | 622 W/m² | - |
| 1777818605 | 12.22° C | 40% | 1008.8 hPa | 0 mm | - | 689 W/m² | - |
| 1777815605 | 10.56° C | 44% | 1008.6 hPa | 0 mm | - | 554 W/m² | - |
| 1777812904 | 9.44° C | 60% | 1008.8 hPa | 0 mm | - | 322 W/m² | - |
* Rain latest hour (hover to see other rain measurements)
** Current wind speed in m/s (hover to see current wind gust speed)